CAPE
167 231 354 427 438 489 559 509 505 532 565 535 869 807 728 789 841 1060 1073 1019 883 1044 1157 945 886 880 1019 1198 998 972 1076 951 629 920 832 921 1283 1498 1426 1534 1210 1256 1160
216 256 378 527 581 446 548 604 572 554 528 534 624 664 629 923 781 831 819 879 724 644 610 700 849 721 818 916 755 921 932 958 770 892 743 1287 1499 1457 1223 1221 891 839 1414
310 325 368 466 641 640 604 739 593 581 669 599 501 500 590 608 827 778 773 632 927 774 731 1030 1013 699 778 918 731 589 650 828 657 389 512 680 981 870 1191 1272 812 896 954
482 499 467 482 532 651 663 591 522 550 608 659 625 428 492 651 695 854 1083 930 720 856 883 873 1125 1094 888 983 763 653 406 519 421 289 442 636 758 956 916 1147 753 663 526
582 587 470 601 808 935 945 828 766 585 688 702 635 519 584 514 639 828 868 871 841 837 794 691 615 651 673 707 923 803 651 575 598 629 587 502 671 821 1111 869 681 513 551
435 436 268 288 439 578 887 861 897 745 629 594 685 665 547 528 678 754 744 706 685 619 712 435 447 449 450 493 602 420 351 511 604 445 443 507 384 665 350 331 420 521 568
245 193 108 133 72 108 179 436 663 662 563 574 625 622 524 389 477 488 546 582 603 529 415 322 274 279 284 365 353 410 308 417 371 305 385 266 329 449 0 32 286 387 91
107 99 94 105 79 55 116 142 168 242 207 203 144 156 248 364 332 308 231 299 418 363 307 312 151 149 137 219 214 161 110 140 189 103 3 0 0 0 0 102 227 278 238
84 66 69 24 53 36 94 131 158 132 88 70 55 69 76 116 162 148 115 138 184 136 205 168 75 85 172 250 310 289 200 91 8 0 0 0 1 27 73 79 45 40 47
47 56 19 42 16 19 46 24 74 68 90 101 134 92 103 80 92 188 102 94 93 55 87 84 77 9 74 131 129 95 61 22 2 1 0 0 0 0 0 0 0 0 0
82 41 43 56 94 58 28 32 65 99 54 105 85 118 106 148 169 158 146 28 71 96 50 33 33 36 74 75 70 74 47 30 15 0 0 0 0 0 0 0 0 0 0
132 127 155 113 125 93 92 71 70 61 91 112 98 125 82 110 165 123 159 154 91 12 30 20 53 55 58 51 59 67 62 42 6 0 0 0 0 0 0 0 0 0 0
111 119 124 119 67 65 48 31 11 22 33 50 111 134 115 83 148 134 109 73 46 28 30 10 14 9 2 23 37 34 32 9 0 0 0 0 0 0 0 0 0 0 0
121 86 43 27 23 8 20 10 4 5 10 30 40 69 109 21 14 35 42 105 49 11 16 18 24 21 13 33 43 30 36 34 5 0 0 0 0 0 0 0 0 0 0
16 16 39 72 29 7 3 10 2 1 0 8 3 15 24 0 3 17 19 50 26 46 29 5 26 41 17 18 19 22 15 7 0 0 0 0 0 0 0 0 0 0 0
3 4 23 18 21 14 5 20 16 4 7 0 0 0 1 0 1 0 1 23 39 36 45 36 24 12 13 4 6 4 9 0 0 0 0 0 0 0 0 0 0 0 0
0 1 0 10 3 3 0 3 11 1 13 18 7 13 2 10 7 0 0 11 0 0 5 3 0 11 2 0 7 6 1 0 0 0 0 0 0 0 0 0 0 0 0
0 0 0 0 0 0 0 0 5 10 29 1 0 2 0 1 0 0 0 0 0 0 0 0 0 0 0 0 0 0 0 0 0 0 0 0 0 0 0 0 0 0 0
0 0 0 0 0 0 0 0 0 0 0 0 6 0 0 0 0 0 0 0 0 0 0 0 0 0 0 0 0 0 0 0 0 0 0 0 0 0 0 0 0 0 0
0 0 0 0 0 0 0 0 0 0 0 0 0 0 0 1 1 1 2 0 0 0 3 0 0 0 0 0 0 0 0 0 0 0 0 0 0 0 0 0 0 0 0
0 0 0 0 0 0 0 0 0 0 0 0 0 0 0 0 0 0 0 0 0 0 0 0 0 0 0 0 0 0 0 0 0 0 0 0 0 0 0 0 0 0 0
0 0 0 0 0 0 0 0 0 0 0 0 0 0 0 0 0 0 0 0 0 0 0 0 0 0 0 0 0 0 0 0 0 0 0 0 0 0 0 0 0 0 0
0 0 0 0 0 0 0 0 0 0 0 0 0 0 0 0 0 0 0 0 0 0 0 0 0 0 0 0 0 0 0 0 0 0 0 0 0 0 0 0 0 0 0
0 0 0 0 0 0 0 0 0 0 0 0 0 0 0 0 0 0 0 0 0 0 0 0 0 0 0 0 0 0 0 0 0 0 0 0 0 0 0 0 0 0 0
17 1 0 3 5 5 7 0 0 1 3 2 0 0 0 0 0 0 0 0 0 0 0 0 0 0 0 0 0 0 0 0 0 0 0 0 0 0 0 0 0 0 0
102 58 40 37 31 19 8 1 4 0 0 0 0 3 1 0 0 5 3 1 0 0 0 0 0 0 0 0 0 0 0 0 0 0 0 0 0 0 0 0 0 0 0
CIN
-71 -186 -98 -53 -38 -52 -49 -36 -55 -77 -46 -48 -126 -42 -116 -125 -111 -22 -12 -9 -57 -84 -45 -64 -109 -118 -98 -75 -110 -28 -91 -40 -54 -54 -55 -123 -97 -94 -113 -116 -119 -114 -67
-107 -87 -164 -74 -36 -110 -50 -46 -47 -57 -44 -44 -44 -144 -37 -110 -31 -98 -19 -68 -88 -93 -20 -98 -82 -71 -88 -20 -14 -81 -86 -26 -64 -58 -99 -83 -68 -99 -118 -129 -110 -101 -72
-120 -214 -186 -114 -60 -47 -55 -31 -51 -115 -40 -37 -37 -39 -45 -48 -95 -95 -18 -102 -76 -88 -93 -71 -73 -17 -84 -68 -57 -75 -19 -23 -5 -88 -83 -113 -82 -115 -92 -81 -105 -90 -46
-189 -164 -150 -135 -78 -49 -36 -36 -56 -31 -109 -64 -34 -61 -95 -124 -79 -93 -78 -53 -98 -85 -88 -84 -81 -77 -60 -92 -87 -81 -24 -80 -97 -95 -86 -74 -77 -74 -86 -56 -57 -62 -44
-94 -105 -85 -67 -44 -21 -17 -37 -32 -47 -25 -27 -38 -95 -117 -97 -34 -19 -91 -76 -90 -84 -18 -31 -41 -35 -26 -53 -94 -94 -15 -78 -64 -54 -59 -70 -59 -48 -22 -33 -52 -56 -25
-70 -43 -54 -37 -27 -19 -14 -13 -17 -19 -22 -19 -19 -16 -22 -48 -20 -21 -23 -20 -91 -96 -88 -42 -26 -47 -63 -53 -61 -47 -29 -72 -55 -56 -51 -41 -54 -30 -82 -77 -52 -26 -3
-66 -48 -61 -36 -37 -73 -80 -51 -31 -25 -40 -22 -16 -8 -18 -28 -53 -50 -35 -18 -13 -49 -28 -40 -31 -23 -54 -56 -50 -27 -60 -46 -39 -36 -46 -62 -52 -38 0 -59 -36 -4 -31
-37 -11 -10 -16 -14 -51 -72 -79 -68 -17 -39 -40 -33 -24 -40 -14 -29 -49 -60 -61 -39 -43 -60 -27 -42 -26 -35 -48 -48 -36 -37 -50 -38 -49 -25 0 0 0 0 -25 -8 -6 -1
-4 -5 0 0 0 -15 -75 -80 -80 -101 -109 -112 -98 -99 -77 -21 -36 -53 -77 -52 -53 -56 -46 -14 -35 -39 -24 -58 -29 -19 -22 -39 -34 0 0 0 -12 -55 -26 -17 -6 -1 -7
-27 0 -1 0 -1 0 -9 -63 -4 -58 -99 -93 -101 -81 -96 -48 -27 -26 -83 -44 -23 -39 -44 -26 -35 -2 -20 -30 -34 -38 -51 -55 -22 -3 0 0 0 0 0 0 0 0 0
-11 -11 -61 -16 -1 -7 -23 -49 -94 -161 -90 -96 -140 -134 -27 -33 -39 -31 -18 -28 -24 -16 -11 -33 -27 -27 -20 -23 -25 -21 -26 -20 -16 0 0 0 0 0 0 0 0 0 0
-2 -1 0 -6 0 0 -1 -30 -65 -72 -64 -59 -31 -4 -5 -12 -2 -8 0 -1 -2 -8 -32 -27 -17 -6 -3 -3 -8 -5 -2 -1 -3 0 0 0 0 0 0 0 0 0 0
-7 -5 -3 -4 -21 -35 -42 -19 -18 -37 -5 -21 -2 0 0 -4 -7 0 -6 0 0 -4 -3 -3 -1 -7 -1 -2 -1 -5 0 -1 0 0 0 0 0 0 0 0 0 0 0
-4 -12 -28 -67 -64 -31 -18 -1 0 0 -27 -9 -43 -25 -5 -36 -48 -7 -11 -2 -1 -7 -3 -3 -1 -3 0 -1 0 0 0 0 -14 0 0 0 0 0 0 0 0 0 0
-36 -47 -39 -46 -43 0 -29 -11 -4 0 0 0 0 -1 -2 0 -2 -1 -3 -2 -1 0 -1 -28 -1 -6 -22 0 -1 -1 -5 0 0 0 0 0 0 0 0 0 0 0 0
0 0 -5 -5 -15 -22 -18 -22 -14 -5 -2 0 0 -2 -3 0 -27 0 -1 -2 0 -3 0 -4 -7 -11 -22 0 0 0 0 0 0 0 0 0 0 0 0 0 0 0 0
0 0 0 -2 0 0 0 -5 -1 -1 -20 -1 -15 -33 0 -2 0 0 -1 -1 0 0 -2 -1 -3 0 -1 0 0 0 0 0 0 0 0 0 0 0 0 0 0 0 0
0 0 0 0 0 0 0 0 -3 -1 -6 0 0 0 0 0 0 0 0 0 0 0 0 0 0 0 0 0 0 0 0 0 0 0 0 0 0 0 0 0 0 0 0
0 0 0 0 0 0 0 0 0 0 0 0 -14 0 0 0 0 0 0 0 0 0 0 0 0 0 0 0 0 0 0 0 0 0 0 0 0 0 0 0 0 0 0
0 0 0 0 0 0 0 0 0 0 0 0 0 0 0 0 -1 -3 -2 0 0 0 -2 0 0 0 0 0 0 0 0 0 0 0 0 0 0 0 0 0 0 0 0
0 0 0 0 0 0 0 0 0 0 0 0 0 0 0 0 0 0 0 0 0 0 0 0 0 0 0 0 0 0 0 0 0 0 0 0 0 0 0 0 0 0 0
0 0 0 0 0 0 0 0 0 0 0 0 0 0 0 0 0 0 0 0 0 0 0 0 0 0 0 0 0 0 0 0 0 0 0 0 0 0 0 0 0 0 0
0 0 0 0 0 0 0 0 0 0 0 0 0 0 0 0 0 0 0 0 0 0 0 0 0 0 0 0 0 0 0 0 0 0 0 0 0 0 0 0 0 0 0
0 0 0 0 0 0 0 0 0 0 0 0 0 0 0 0 0 0 0 0 0 0 0 0 0 0 0 0 0 0 0 0 0 0 0 0 0 0 0 0 0 0 0
-27 -1 -1 -2 -1 -1 0 0 0 -1 0 -1 -2 0 0 0 0 0 0 0 0 0 0 0 0 0 0 0 0 0 0 0 0 0 0 0 0 0 0 0 0 0 0
-21 -16 -5 0 -3 0 0 -11 0 0 0 0 0 0 0 0 0 0 0 0 0 0 0 0 0 0 0 0 0 0 0 0 0 0 0 0 0 0 0 0 0 0 0
Wind_Speed
14 14 15 15 14 14 13 11 10 10 10 9 9 7 6 4 4 3 2 2 2 3 4 4 3 5 6 7 10 10 9 12 13 11 8 5 4 2 2 3 0 3 4
14 16 16 18 18 18 15 13 14 13 13 10 10 9 8 7 8 7 5 6 5 5 5 7 7 8 8 8 9 10 9 10 12 12 7 5 1 1 1 2 3 2 1
20 19 20 21 21 20 19 17 18 17 15 14 15 13 10 11 11 10 10 8 7 7 7 8 8 10 10 11 10 10 10 10 10 11 9 7 6 5 4 3 5 2 3
24 25 25 22 22 23 23 23 23 21 19 18 17 16 13 14 14 13 13 12 10 11 11 11 10 7 8 10 11 11 12 11 11 11 9 10 10 10 9 7 8 6 5
30 33 35 33 32 29 26 27 27 25 23 21 20 19 18 17 18 16 15 14 14 13 13 14 13 12 12 9 14 14 14 13 12 13 12 12 13 14 13 9 6 7 9
24 24 32 31 26 25 33 31 31 28 31 29 28 24 22 21 25 19 16 18 17 16 16 16 15 15 17 15 16 17 17 16 13 14 14 13 14 13 15 15 12 13 12
29 31 35 25 nan 34 33 39 41 39 40 40 37 35 32 31 33 25 23 20 19 20 23 19 17 20 17 20 25 25 24 21 20 17 16 16 15 19 nan nan 19 20 nan
38 nan nan 34 nan nan 35 33 36 44 42 39 41 37 35 34 34 25 25 25 23 24 30 29 19 19 19 23 26 27 27 26 24 25 nan nan nan nan nan 22 23 26 27
nan nan nan nan nan nan nan 32 38 42 nan nan nan nan nan 40 42 30 33 34 36 34 34 24 nan nan 17 22 32 34 34 nan nan nan nan nan nan nan nan nan nan nan nan
nan nan nan nan nan nan nan nan nan nan nan 46 48 nan 51 nan nan 39 44 nan nan nan nan nan nan nan nan 27 29 nan nan nan nan nan nan nan nan nan nan nan nan nan nan
nan nan nan nan nan nan nan nan nan nan nan 29 nan 40 44 33 40 23 25 nan nan nan nan nan nan nan nan nan nan nan nan nan nan nan nan nan nan nan nan nan nan nan nan
38 32 24 21 22 nan nan nan nan nan nan 27 nan 24 nan 21 26 24 29 30 nan nan nan nan nan nan nan nan nan nan nan nan nan nan nan nan nan nan nan nan nan nan nan
27 28 30 31 nan nan nan nan nan nan nan nan 28 28 28 nan 26 32 37 nan nan nan nan nan nan nan nan nan nan nan nan nan nan nan nan nan nan nan nan nan nan nan nan
27 nan nan nan nan nan nan nan nan nan nan nan nan nan 35 nan nan nan nan 39 nan nan nan nan nan nan nan nan nan nan nan nan nan nan nan nan nan nan nan nan nan nan nan
nan nan nan nan nan nan nan nan nan nan nan nan nan nan nan nan nan nan nan nan nan nan nan nan nan nan nan nan nan nan nan nan nan nan nan nan nan nan nan nan nan nan nan
nan nan nan nan nan nan nan nan nan nan nan nan nan nan nan nan nan nan nan nan nan nan nan nan nan nan nan nan nan nan nan nan nan nan nan nan nan nan nan nan nan nan nan
nan nan nan nan nan nan nan nan nan nan nan nan nan nan nan nan nan nan nan nan nan nan nan nan nan nan nan nan nan nan nan nan nan nan nan nan nan nan nan nan nan nan nan
nan nan nan nan nan nan nan nan nan nan nan nan nan nan nan nan nan nan nan nan nan nan nan nan nan nan nan nan nan nan nan nan nan nan nan nan nan nan nan nan nan nan nan
nan nan nan nan nan nan nan nan nan nan nan nan nan nan nan nan nan nan nan nan nan nan nan nan nan nan nan nan nan nan nan nan nan nan nan nan nan nan nan nan nan nan nan
nan nan nan nan nan nan nan nan nan nan nan nan nan nan nan nan nan nan nan nan nan nan nan nan nan nan nan nan nan nan nan nan nan nan nan nan nan nan nan nan nan nan nan
nan nan nan nan nan nan nan nan nan nan nan nan nan nan nan nan nan nan nan nan nan nan nan nan nan nan nan nan nan nan nan nan nan nan nan nan nan nan nan nan nan nan nan
nan nan nan nan nan nan nan nan nan nan nan nan nan nan nan nan nan nan nan nan nan nan nan nan nan nan nan nan nan nan nan nan nan nan nan nan nan nan nan nan nan nan nan
nan nan nan nan nan nan nan nan nan nan nan nan nan nan nan nan nan nan nan nan nan nan nan nan nan nan nan nan nan nan nan nan nan nan nan nan nan nan nan nan nan nan nan
nan nan nan nan nan nan nan nan nan nan nan nan nan nan nan nan nan nan nan nan nan nan nan nan nan nan nan nan nan nan nan nan nan nan nan nan nan nan nan nan nan nan nan
nan nan nan nan nan nan nan nan nan nan nan nan nan nan nan nan nan nan nan nan nan nan nan nan nan nan nan nan nan nan nan nan nan nan nan nan nan nan nan nan nan nan nan
32 nan nan nan nan nan nan nan nan nan nan nan nan nan nan nan nan nan nan nan nan nan nan nan nan nan nan nan nan nan nan nan nan nan nan nan nan nan nan nan nan nan nan
Wind_Direction
219 226 225 225 227 230 219 203 197 211 206 199 195 196 204 223 231 230 230 248 262 275 271 280 271 272 283 296 303 315 326 328 341 351 7 46 44 29 287 273 260 44 345
233 230 234 233 229 230 230 225 224 217 223 221 229 237 243 237 253 263 246 244 240 252 257 245 233 243 261 271 278 293 307 318 322 334 342 340 324 335 19 217 265 96 133
242 240 237 239 237 231 234 232 239 234 232 234 237 240 248 253 263 262 262 257 253 240 233 225 231 246 245 263 268 278 281 289 297 309 314 309 324 308 310 288 275 327 271
249 246 241 239 241 240 242 236 239 240 239 244 248 247 246 252 258 257 261 261 253 248 245 238 218 246 266 268 270 269 276 286 290 294 299 297 293 290 293 281 280 295 269
237 247 241 240 236 237 239 245 248 243 239 239 245 253 248 245 252 261 266 269 263 256 250 256 253 250 246 270 277 283 287 286 287 289 292 292 290 290 284 289 293 292 307
240 242 254 252 250 256 234 239 246 245 241 234 233 238 246 244 247 241 247 261 266 267 265 261 258 249 256 254 262 268 282 284 283 285 281 281 285 286 290 295 297 295 295
253 248 251 251 nan 249 253 253 238 244 249 248 242 241 244 246 235 230 224 241 254 259 260 260 256 243 249 264 264 261 256 255 261 270 268 267 273 285 nan nan 292 293 nan
239 nan nan 251 nan nan 262 266 249 240 240 244 250 248 250 246 237 237 238 246 254 261 265 265 248 249 263 269 268 267 257 255 261 261 nan nan nan nan nan 277 281 289 291
nan nan nan nan nan nan nan 266 257 249 nan nan nan nan nan 236 227 231 246 246 252 249 251 258 nan nan 242 277 267 266 266 nan nan nan nan nan nan nan nan nan nan nan nan
nan nan nan nan nan nan nan nan nan nan nan 260 264 nan 239 nan nan 226 252 nan nan nan nan nan nan nan nan 258 262 nan nan nan nan nan nan nan nan nan nan nan nan nan nan
nan nan nan nan nan nan nan nan nan nan nan 262 nan 251 247 245 230 211 270 nan nan nan nan nan nan nan nan nan nan nan nan nan nan nan nan nan nan nan nan nan nan nan nan
283 287 280 265 278 nan nan nan nan nan nan 286 nan 281 nan 270 261 257 261 272 nan nan nan nan nan nan nan nan nan nan nan nan nan nan nan nan nan nan nan nan nan nan nan
269 252 259 251 nan nan nan nan nan nan nan nan 268 268 265 nan 257 255 256 nan nan nan nan nan nan nan nan nan nan nan nan nan nan nan nan nan nan nan nan nan nan nan nan
257 nan nan nan nan nan nan nan nan nan nan nan nan nan 260 nan nan nan nan 274 nan nan nan nan nan nan nan nan nan nan nan nan nan nan nan nan nan nan nan nan nan nan nan
nan nan nan nan nan nan nan nan nan nan nan nan nan nan nan nan nan nan nan nan nan nan nan nan nan nan nan nan nan nan nan nan nan nan nan nan nan nan nan nan nan nan nan
nan nan nan nan nan nan nan nan nan nan nan nan nan nan nan nan nan nan nan nan nan nan nan nan nan nan nan nan nan nan nan nan nan nan nan nan nan nan nan nan nan nan nan
nan nan nan nan nan nan nan nan nan nan nan nan nan nan nan nan nan nan nan nan nan nan nan nan nan nan nan nan nan nan nan nan nan nan nan nan nan nan nan nan nan nan nan
nan nan nan nan nan nan nan nan nan nan nan nan nan nan nan nan nan nan nan nan nan nan nan nan nan nan nan nan nan nan nan nan nan nan nan nan nan nan nan nan nan nan nan
nan nan nan nan nan nan nan nan nan nan nan nan nan nan nan nan nan nan nan nan nan nan nan nan nan nan nan nan nan nan nan nan nan nan nan nan nan nan nan nan nan nan nan
nan nan nan nan nan nan nan nan nan nan nan nan nan nan nan nan nan nan nan nan nan nan nan nan nan nan nan nan nan nan nan nan nan nan nan nan nan nan nan nan nan nan nan
nan nan nan nan nan nan nan nan nan nan nan nan nan nan nan nan nan nan nan nan nan nan nan nan nan nan nan nan nan nan nan nan nan nan nan nan nan nan nan nan nan nan nan
nan nan nan nan nan nan nan nan nan nan nan nan nan nan nan nan nan nan nan nan nan nan nan nan nan nan nan nan nan nan nan nan nan nan nan nan nan nan nan nan nan nan nan
nan nan nan nan nan nan nan nan nan nan nan nan nan nan nan nan nan nan nan nan nan nan nan nan nan nan nan nan nan nan nan nan nan nan nan nan nan nan nan nan nan nan nan
nan nan nan nan nan nan nan nan nan nan nan nan nan nan nan nan nan nan nan nan nan nan nan nan nan nan nan nan nan nan nan nan nan nan nan nan nan nan nan nan nan nan nan
nan nan nan nan nan nan nan nan nan nan nan nan nan nan nan nan nan nan nan nan nan nan nan nan nan nan nan nan nan nan nan nan nan nan nan nan nan nan nan nan nan nan nan
281 nan nan nan nan nan nan nan nan nan nan nan nan nan nan nan nan nan nan nan nan nan nan nan nan nan nan nan nan nan nan nan nan nan nan nan nan nan nan nan nan nan nan